Weather History for Paso Robles, CA

Change the Weather History Date:

Saturday, December 20, 2014

  Actual Average Record
Temperature  
Mean Temperature 58 °F 46 °F  
Max Temperature 64 °F 59 °F 74 °F (2000)
Min Temperature 52 °F 33 °F 20 °F (1971)
Degree Days  
Heating Degree Days 7 19  
Month to date heating degree days 198 367  
Since 1 July heating degree days 477 916  
Cooling Degree Days 0 0  
Month to date cooling degree days 0 0  
Year to date cooling degree days 1357 927  
Growing Degree Days 7 (Base 50)    
Moisture  
Dew Point 51 °F    
Average Humidity 81    
Maximum Humidity 89    
Minimum Humidity 72    
Precipitation  
Precipitation 0.01 in 0.07 in 0.76 in (2010)
Month to date precipitation 4.45 1.15  
Year to date precipitation 10.13 11.92  
Since 1 July precipitation 5.67 3.13  
Sea Level Pressure  
Sea Level Pressure 30.19 in    
Wind  
Wind Speed 5 mph (North)    
Max Wind Speed 16 mph    
Max Gust Speed -    
Visibility 10 miles    
Events Rain    
T = Trace of Precipitation, MM = Missing Value Source: NWS Daily Summary

Daily Weather History Graph

Daily Weather History Graph

Search for Another Location

Airport:

Trip Planner

Search our weather history database for the weather conditions in past years. The results will help you decide how hot, cold, wet, or windy it might be!

Date:

Astronomy

Dec. 20, 2014 Rise Set
Actual Time 7:07 AM PST 4:52 PM PST
Civil Twilight 6:39 AM PST 5:20 PM PST
Nautical Twilight 6:07 AM PST 5:52 PM PST
Astronomical Twilight 5:36 AM PST 6:24 PM PST
Moon 5:32 AM PST (12/20) 4:05 PM PST (12/20)
Length of Visible Light 10h 41m
Length of Day
9h 44m
Waning Crescent, 2% of the Moon is Illuminated
Dec 20
Waning Crescent
Dec 21
New
Dec 28
First Quarter
Jan 4
Full
Jan 13
Last Quarter

Hourly Weather History & Observations

Time (PST) Temp. Dew Point Humidity Pressure Visibility Wind Dir Wind Speed Gust Speed Precip Events Conditions
12:11 AM 53.1 °F 50.0 °F 89% 30.19 in 10.0 mi ESE 3.5 mph - N/A   Overcast
12:53 AM 52.0 °F 48.9 °F 89% 30.17 in 10.0 mi SE 3.5 mph - N/A   Scattered Clouds
1:04 AM 52.0 °F 48.9 °F 89% 30.17 in 10.0 mi Calm Calm - N/A   Mostly Cloudy
1:53 AM 53.1 °F 48.9 °F 86% 30.17 in 10.0 mi SE 3.5 mph - N/A   Overcast
2:53 AM 52.0 °F 48.9 °F 89% 30.16 in 10.0 mi Calm Calm - N/A   Overcast
3:25 AM 52.0 °F 48.9 °F 89% 30.16 in 10.0 mi Calm Calm - N/A   Overcast
3:48 AM 51.8 °F 48.2 °F 88% 30.16 in 10.0 mi Calm Calm - N/A   Overcast
3:53 AM 52.0 °F 48.0 °F 86% 30.15 in 10.0 mi Calm Calm - N/A   Overcast
4:28 AM 52.0 °F 48.9 °F 89% 30.15 in 10.0 mi Calm Calm - N/A   Overcast
4:53 AM 52.0 °F 48.9 °F 89% 30.14 in 10.0 mi ESE 3.5 mph - N/A   Overcast
5:53 AM 52.0 °F 48.9 °F 89% 30.16 in 10.0 mi ENE 3.5 mph - 0.00 in   Overcast
6:53 AM 52.0 °F 48.9 °F 89% 30.16 in 6.0 mi ESE 6.9 mph - 0.00 in Rain Light Rain
7:53 AM 52.0 °F 48.9 °F 89% 30.19 in 10.0 mi ESE 4.6 mph - 0.01 in   Overcast
8:12 AM 53.1 °F 50.0 °F 89% 30.19 in 10.0 mi East 4.6 mph - N/A   Overcast
8:53 AM 54.0 °F 50.0 °F 86% 30.20 in 10.0 mi SE 3.5 mph - N/A   Overcast
9:53 AM 55.9 °F 52.0 °F 87% 30.22 in 10.0 mi Calm Calm - N/A   Overcast
10:45 AM 57.9 °F 53.1 °F 84% 30.23 in 10.0 mi Calm Calm - N/A   Overcast
10:53 AM 57.9 °F 53.1 °F 84% 30.22 in 10.0 mi East 3.5 mph - N/A   Overcast
11:53 AM 59.0 °F 54.0 °F 83% 30.19 in 10.0 mi Calm Calm - N/A   Overcast
12:24 PM 60.1 °F 55.0 °F 83% 30.19 in 10.0 mi SSW 3.5 mph - N/A   Overcast
12:49 PM 60.8 °F 55.4 °F 82% 30.19 in 10.0 mi Calm Calm - N/A   Overcast
12:53 PM 61.0 °F 55.0 °F 81% 30.17 in 10.0 mi Calm Calm - N/A   Overcast
1:53 PM 63.0 °F 54.0 °F 72% 30.16 in 10.0 mi NW 3.5 mph - N/A   Mostly Cloudy
2:53 PM 63.0 °F 54.0 °F 72% 30.16 in 10.0 mi NW 6.9 mph - N/A   Mostly Cloudy
3:53 PM 62.1 °F 54.0 °F 75% 30.18 in 10.0 mi NW 10.4 mph - N/A   Mostly Cloudy
4:53 PM 59.0 °F 54.0 °F 83% 30.19 in 10.0 mi NW 8.1 mph - N/A   Mostly Cloudy
5:53 PM 57.9 °F 53.1 °F 84% 30.22 in 10.0 mi NW 10.4 mph - N/A   Scattered Clouds
6:53 PM 57.0 °F 52.0 °F 83% 30.22 in 10.0 mi NW 4.6 mph - N/A   Overcast
7:12 PM 57.0 °F 52.0 °F 83% 30.23 in 10.0 mi NW 8.1 mph - N/A   Mostly Cloudy
7:53 PM 55.9 °F 52.0 °F 87% 30.24 in 10.0 mi NW 4.6 mph - N/A   Scattered Clouds
8:53 PM 55.9 °F 48.9 °F 77% 30.25 in 10.0 mi NW 13.8 mph - N/A   Partly Cloudy
9:53 PM 54.0 °F 48.9 °F 83% 30.27 in 10.0 mi NW 4.6 mph - N/A   Clear
10:53 PM 54.0 °F 48.9 °F 83% 30.27 in 10.0 mi NW 6.9 mph - N/A   Clear
11:53 PM 53.1 °F 48.9 °F 86% 30.26 in 10.0 mi NW 6.9 mph - N/A   Clear